Tracking 19717 objects as of 25-Jun-2019
HD Live streaming from Space Station
objects crossing your sky now

THORAD AGENA D DEB

Track THORAD AGENA D DEB now!
10-day predictions


NORAD ID: 4748
Int'l Code: 1970-025CW
Perigee: 1,029.7 km
Apogee: 1,039.0 km
Inclination: 100.0 °
Period: 105.7 minutes
Semi major axis: 7405 km
RCS: 0.1028 m2 (medium)
Launch date: April 8, 1970
Source: United States (US)
Launch site: AIR FORCE WESTERN TEST RANGE (AFWTR)

Note: This is SATELLITE DEBRIS
aabbcc
Your satellite tracking list
Your tracking list is empty




NASA's NSSDC Master Catalog

Two Line Element Set (TLE):
1  4748U 70025CW  19175.66051330 +.00000040 +00000-0 +11288-3 0  9991
2  4748 100.0143 243.7341 0006284 055.0800 098.6091 13.62336785435599
Source of the keplerian elements: AFSPC